Change the Weather History Date:

Friday, February 15, 2013

  Actual Average Record
Temperature  
Mean Temperature 30 °F -  
Max Temperature 35 °F 22 °F 42 °F (2002)
Min Temperature 26 °F 4 °F -23 °F (2003)
Degree Days  
Heating Degree Days 34    
Moisture  
Dew Point 26 °F    
Average Humidity 82    
Maximum Humidity 100    
Minimum Humidity 64    
Precipitation  
Precipitation 0.00 in - - ()
Sea Level Pressure  
Sea Level Pressure 29.83 in    
Wind  
Wind Speed 7 mph ()    
Max Wind Speed 18 mph    
Max Gust Speed 29 mph    
Visibility 3.6 miles    
Events Rain , Snow    
Averages and records for this station are not official NWS values.
T = Trace of Precipitation, MM = Missing Value Source: Averaged Metar Reports

Daily Weather History Graph

Daily Weather History Graph

Search for Another Location

Airport or City:

Trip Planner

Search our weather history database for the weather conditions in past years. The results will help you decide how hot, cold, wet, or windy it might be!

Date:

Astronomy

Feb. 15, 2013 Rise Set
Actual Time 6:57 AM EST 5:23 PM EST
Civil Twilight 6:27 AM EST 5:53 PM EST
Nautical Twilight 5:52 AM EST 6:28 PM EST
Astronomical Twilight 5:18 AM EST 7:03 PM EST
Moon 9:12 AM EST (2/15) 11:43 PM EST (2/15)
Length of Visible Light 11h 26m
Length of Day
10h 25m
Waxing Crescent, 30% of the Moon is Illuminated
Feb 15
Waxing Crescent
Feb 17
First Quarter
Feb 25
Full
Mar 4
Last Quarter
Mar 11
New

Hourly Weather History & Observations

Time (EST) Temp. Windchill Dew Point Humidity Pressure Visibility Wind Dir Wind Speed Gust Speed Precip Events Conditions
12:00 AM 28.4 °F 22.2 °F 21.2 °F 74% 29.88 in 25.0 mi ESE 5.8 mph - N/A   Overcast
1:00 AM 26.6 °F 21.2 °F 21.2 °F 80% 29.87 in 25.0 mi East 4.6 mph - N/A   Overcast
2:00 AM 26.6 °F 21.2 °F 21.2 °F 80% 29.85 in 25.0 mi NNE 4.6 mph - N/A Snow Light Snow
3:00 AM 26.6 °F 20.0 °F 23.0 °F 86% 29.83 in 3.0 mi NE 5.8 mph - N/A Snow Light Snow
3:26 AM 26.6 °F 19.1 °F 24.8 °F 93% 29.82 in 2.0 mi NE 6.9 mph - N/A Snow Light Snow
4:00 AM 26.6 °F 19.1 °F 24.8 °F 93% 29.81 in 2.0 mi NE 6.9 mph - N/A Snow Light Snow
5:00 AM 26.6 °F 20.0 °F 24.8 °F 93% 29.80 in 1.5 mi ENE 5.8 mph - N/A Snow Light Snow
6:00 AM 26.6 °F 20.0 °F 26.6 °F 100% 29.78 in 1.5 mi NE 5.8 mph - N/A Snow Light Snow
6:48 AM 26.6 °F 21.2 °F 26.6 °F 100% 29.77 in 2.5 mi ENE 4.6 mph - N/A   Light Freezing Drizzle
7:00 AM 26.6 °F 22.6 °F 26.6 °F 100% 29.78 in 2.0 mi ENE 3.5 mph - N/A   Light Freezing Drizzle
7:25 AM 28.4 °F - 26.6 °F 93% 29.78 in 2.0 mi NNE 2.3 mph - N/A   Overcast
8:00 AM 28.4 °F 24.6 °F 26.6 °F 93% 29.79 in 2.0 mi NE 3.5 mph - N/A   Overcast
8:35 AM 28.4 °F 24.6 °F 26.6 °F 93% 29.79 in 2.5 mi NE 3.5 mph - N/A Snow Light Snow Showers
9:00 AM 30.2 °F - 28.4 °F 93% 29.79 in 3.0 mi Calm Calm - N/A Snow Light Snow Showers
9:46 AM 35.6 °F 27.5 °F 32.0 °F 87% 29.79 in 6.0 mi SSW 11.5 mph - N/A Rain , Snow Light Rain Showers
10:00 AM 35.6 °F 28.0 °F 30.2 °F 81% 29.79 in 10.0 mi SW 10.4 mph - N/A Rain , Snow Light Rain Showers
11:00 AM 35.6 °F 25.9 °F 30.2 °F 81% 29.79 in 8.0 mi SW 16.1 mph 23.0 mph N/A Rain , Snow Light Rain Showers
12:00 PM 35.6 °F 26.6 °F 30.2 °F 81% 29.78 in 6.0 mi SSW 13.8 mph 21.9 mph N/A Rain , Snow Light Rain Showers
12:37 PM 35.6 °F 27.5 °F 30.2 °F 81% 29.79 in 2.0 mi WSW 11.5 mph 23.0 mph N/A Snow Light Snow Showers
12:42 PM 35.6 °F 26.6 °F 30.2 °F 81% 29.78 in 3.0 mi SW 13.8 mph 24.2 mph N/A Snow Light Snow Showers
1:00 PM 35.6 °F 27.1 °F 30.2 °F 81% 29.78 in 4.0 mi SW 12.7 mph 28.8 mph N/A Snow Light Snow Showers
2:00 PM 35.6 °F 27.5 °F 28.4 °F 75% 29.79 in 4.0 mi SW 11.5 mph 27.6 mph N/A Snow Light Snow Showers
3:00 PM 33.8 °F 25.3 °F 30.2 °F 87% 29.81 in 4.0 mi SW 11.5 mph 21.9 mph N/A Snow Light Snow Showers
4:00 PM 35.6 °F 25.9 °F 24.8 °F 65% 29.83 in 45.0 mi SW 16.1 mph 26.5 mph N/A Snow Light Snow Showers
4:45 PM 33.8 °F 23.2 °F 24.8 °F 70% 29.85 in 45.0 mi SW 17.3 mph 28.8 mph N/A   Mostly Cloudy
5:00 PM 33.8 °F 22.8 °F 24.8 °F 70% 29.85 in 45.0 mi SW 18.4 mph 26.5 mph N/A   Mostly Cloudy
6:00 PM 33.8 °F 24.8 °F 24.8 °F 70% 29.87 in 25.0 mi SW 12.7 mph 21.9 mph N/A   Overcast
7:00 PM 32.0 °F 21.6 °F 23.0 °F 69% 29.90 in 25.0 mi WSW 15.0 mph 23.0 mph N/A   Overcast
8:00 PM 32.0 °F 22.5 °F 21.2 °F 64% 29.92 in 25.0 mi WSW 12.7 mph 23.0 mph N/A   Overcast
9:00 PM 30.2 °F 22.6 °F 21.2 °F 69% 29.93 in 25.0 mi WSW 8.1 mph 18.4 mph N/A   Overcast
10:00 PM 30.2 °F 22.6 °F 21.2 °F 69% 29.93 in 25.0 mi WSW 8.1 mph 17.3 mph N/A   Overcast
11:00 PM 28.4 °F 18.5 °F 19.4 °F 69% 29.93 in 25.0 mi WSW 11.5 mph 18.4 mph N/A   Overcast